This demonstration page uses our WeatherBlox Daily Observations layout. Learn more.

Left ArrowRight Arrow

44.8408, -93.29828

Hourly Observations for September 24, 2017

Temp ( °F °C ) Dew Point ( °F °C ) Humidity (%) Winds ( mph kmh ) Pressure ( in mb ) Visibility ( mi km ) Precip ( " mm )
12:53 am 00:53 Mostly Cloudy 78 25.6 65 18.3 64 64 S 8 13 29.92 1013 10 16 0.00 0.00
1:53 am 01:53 Clear 77 25 65 18.3 66 66 S 13 20 29.91 1013 10 16 0.00 0.00
2:53 am 02:53 Clear 77 25 65 18.3 66 66 S 10 17 29.92 1013 10 16 0.00 0.00
3:53 am 03:53 Clear 76 24.4 65 18.3 69 69 S 10 17 29.91 1013 10 16 0.00 0.00
4:53 am 04:53 Clear 75 23.9 64 17.8 69 69 S 7 11 29.91 1013 10 16 0.00 0.00
5:53 am 05:53 Clear 73 22.8 64 17.8 74 74 S 3 6 29.92 1013 10 16 0.00 0.00
6:53 am 06:53 Mostly Clear 71 21.7 64 17.8 79 79 SE 7 11 29.93 1013 10 16 0.00 0.00
7:53 am 07:53 Partly Cloudy 71 21.7 64 17.8 79 79 SE 6 9 29.93 1014 10 16 0.00 0.00
8:53 am 08:53 Mostly Cloudy 74 23.3 65 18.3 74 74 S 7 11 29.93 1014 10 16 0.00 0.00
9:53 am 09:53 Mostly Cloudy 77 25 66 18.9 69 69 S 10 17 29.93 1014 10 16 0.00 0.00
10:53 am 10:53 Mostly Cloudy 82 27.8 67 19.4 60 60 S 16 26 29.92 1013 10 16 0.00 0.00
11:53 am 11:53 Mostly Cloudy 86 30 68 20 55 55 S 10 17 29.91 1013 10 16 0.00 0.00
12:53 pm 12:53 Mostly Cloudy 88 31.1 65 18.3 46 46 S 17 28 29.89 1012 10 16 0.00 0.00
1:53 pm 13:53 Mostly Cloudy 89 31.7 64 17.8 43 43 S 18 30 29.88 1012 10 16 0.00 0.00
2:53 pm 14:53 Mostly Cloudy 89 31.7 63 17.2 42 42 SSW 15 24 29.85 1011 10 16 0.00 0.00
3:53 pm 15:53 Mostly Cloudy 90 32.2 63 17.2 41 41 S 17 28 29.83 1010 10 16 0.00 0.03
4:53 pm 16:53 Mostly Cloudy 90 32.2 62 16.7 39 39 S 15 24 29.82 1010 10 16 0.00 0.00
5:53 pm 17:53 Mostly Cloudy 88 31.1 62 16.7 42 42 S 9 15 29.82 1010 10 16 0.00 0.00
6:53 pm 18:53 Mostly Cloudy 86 30 61 16.1 43 43 S 9 15 29.83 1010 10 16 0.00 0.00
7:31 pm 19:31 Mostly Cloudy 78 25.6 66 18.9 67 67 W 16 26 29.85 1011 10 16 0.00 0.00
7:53 pm 19:53 Mostly Cloudy 77 25 66 18.9 69 69 W 10 17 29.88 1012 10 16 0.00 0.00
8:53 pm 20:53 Mostly Cloudy 75 23.9 66 18.9 74 74 WNW 5 7 29.88 1012 10 16 0.00 0.00
9:53 pm 21:53 Mostly Cloudy 74 23.3 66 18.9 76 76 WSW 7 11 29.90 1012 10 16 0.00 0.00
10:53 pm 22:53 Mostly Cloudy 73 22.8 66 18.9 79 79 W 7 11 29.91 1013 10 16 0.00 0.03
11:53 pm 23:53 Cloudy 72 22.2 67 19.4 84 84 W 7 11 29.91 1013 10 16 0.00 0.00

Powered by AerisWeather